Regional Weather Roundup
Issued by NWS Charleston, WV

Home | Current Version | Previous Version | Graphics & Text | Print | Product List | Glossary On
Versions: 1 2 3 4 5 6 7 8 9 10 11 12 13 14 15 16 17 18 19 20 21 22 23 24 25 26 27
000
ASUS41 KRLX 272010
RWRRLX
West Virginia Regional Weather Roundup
National Weather Service Charleston WV
400 PM EDT MON MAR 27 2017

Note: "fair" indicates few or no clouds below 12,000 feet with no
significant weather and/or obstructions to visibility.

WVZ003-272100-
Northern Panhandle of West Virginia

CITY           SKY/WX    TMP DP  RH WIND       PRES   REMARKS
WHEELING       SUNNY     69  47  45 W10G17    29.92F
$$

WVZ009-272100-
Northwest West Virginia

CITY           SKY/WX    TMP DP  RH WIND       PRES   REMARKS
PARKERSBURG    CLOUDY    69  54  58 W5        29.96F
$$

WVZ006-272100-
Western West Virginia

CITY           SKY/WX    TMP DP  RH WIND       PRES   REMARKS
HUNTINGTON     CLOUDY    69  57  65 S6        29.92F
$$

WVZ015-272100-
West Central West Virginia

CITY           SKY/WX    TMP DP  RH WIND       PRES   REMARKS
CHARLESTON     CLOUDY    72  53  51 W6        29.94S
$$

WVZ022-031-272100-
North Central West Virginia

CITY           SKY/WX    TMP DP  RH WIND       PRES   REMARKS
CLARKSBURG     PTSUNNY   70  51  51 W7        29.94F
MORGANTOWN     MOSUNNY   69  51  52 SW8       29.95F
$$

WVZ025-035-042-045-272100-
Southern West Virginia

CITY           SKY/WX    TMP DP  RH WIND       PRES   REMARKS
BECKLEY        CLOUDY    71  50  47 N5        29.99F
LOGAN          PTSUNNY   66  55  68 VRB6      29.97S THUNDER
BLUEFIELD      NOT AVBL
LEWISBURG      CLOUDY    66  50  56 W5        30.01S
$$

WVZ047-272100-
Northern Mountains of West Virginia

CITY           SKY/WX    TMP DP  RH WIND       PRES   REMARKS
ELKINS         CLOUDY    69  47  45 W8        29.97F
$$

WVZ052-272100-
Eastern Panhandle of West Virginia

CITY           SKY/WX    TMP DP  RH WIND       PRES   REMARKS
MARTINSBURG    SUNNY     70  56  61 E5        29.94F
PETERSBURG     PTSUNNY   76  54  46 N6        29.93F
$$




USA.gov is the U.S. government's official web portal to all federal, state and local government web resources and services.